Total_Precipitation_Accumulation
0.08 0.07 0.08 0.11 0.14 0.20 0.26 0.31 0.34 0.40 0.43 0.41 0.39 0.36 0.34 0.36 0.36 0.33 0.32 0.28 0.22 0.18 0.14 0.10 0.08 0.06 0.04 0.03 0.04 0.04 0.03 0.03 0.02 0.02 0.02 0.00 0.00 0.01 0.01 0.01 0.01 0.01 0.02
0.05 0.07 0.08 0.09 0.11 0.13 0.17 0.24 0.28 0.35 0.38 0.35 0.40 0.43 0.50 0.54 0.54 0.50 0.42 0.37 0.34 0.30 0.23 0.16 0.14 0.13 0.10 0.07 0.07 0.08 0.07 0.06 0.06 0.07 0.09 0.05 0.02 0.01 0.01 0.02 0.02 0.02 0.02
0.02 0.04 0.06 0.07 0.08 0.09 0.11 0.15 0.21 0.27 0.32 0.39 0.49 0.56 0.60 0.52 0.47 0.42 0.40 0.40 0.41 0.41 0.37 0.31 0.26 0.23 0.20 0.15 0.16 0.17 0.16 0.16 0.17 0.16 0.20 0.17 0.09 0.06 0.03 0.03 0.03 0.03 0.02
0.01 0.02 0.03 0.04 0.05 0.07 0.10 0.13 0.17 0.22 0.27 0.35 0.36 0.39 0.39 0.35 0.34 0.40 0.46 0.48 0.47 0.46 0.44 0.41 0.37 0.34 0.30 0.27 0.29 0.32 0.33 0.33 0.29 0.23 0.21 0.22 0.21 0.22 0.15 0.05 0.04 0.04 0.04
0.01 0.01 0.02 0.03 0.04 0.06 0.09 0.11 0.14 0.19 0.25 0.29 0.32 0.35 0.33 0.34 0.37 0.40 0.41 0.42 0.42 0.42 0.43 0.43 0.44 0.43 0.41 0.42 0.45 0.45 0.45 0.43 0.40 0.36 0.34 0.33 0.30 0.28 0.31 0.19 0.09 0.09 0.10
0.01 0.01 0.02 0.02 0.03 0.04 0.06 0.08 0.11 0.13 0.17 0.23 0.28 0.29 0.32 0.35 0.36 0.36 0.36 0.37 0.40 0.40 0.39 0.41 0.44 0.47 0.47 0.48 0.50 0.53 0.56 0.57 0.55 0.52 0.47 0.47 0.43 0.37 0.42 0.39 0.26 0.22 0.19
0.00 0.01 0.01 0.01 0.01 0.02 0.04 0.06 0.08 0.09 0.12 0.17 0.21 0.23 0.28 0.33 0.32 0.33 0.34 0.34 0.32 0.29 0.31 0.37 0.41 0.46 0.50 0.53 0.55 0.55 0.56 0.61 0.65 0.67 0.65 0.64 0.61 0.58 0.63 0.67 0.55 0.44 0.34
0.00 0.00 0.00 0.00 0.01 0.01 0.02 0.04 0.05 0.07 0.11 0.13 0.14 0.16 0.19 0.24 0.25 0.27 0.27 0.29 0.29 0.32 0.35 0.38 0.40 0.42 0.44 0.46 0.48 0.50 0.52 0.58 0.63 0.67 0.70 0.71 0.68 0.69 0.74 0.81 0.87 0.78 0.60
0.00 0.00 0.00 0.00 0.00 0.01 0.01 0.02 0.03 0.06 0.08 0.10 0.13 0.13 0.13 0.15 0.18 0.21 0.23 0.24 0.26 0.28 0.31 0.33 0.34 0.34 0.36 0.37 0.40 0.42 0.43 0.47 0.50 0.55 0.60 0.63 0.62 0.64 0.68 0.75 0.90 1.02 0.92
0.00 0.00 0.00 0.00 0.00 0.01 0.01 0.02 0.03 0.05 0.07 0.09 0.10 0.10 0.10 0.12 0.15 0.16 0.15 0.16 0.19 0.21 0.23 0.25 0.25 0.26 0.26 0.27 0.28 0.29 0.29 0.31 0.34 0.39 0.44 0.49 0.50 0.54 0.59 0.65 0.72 0.86 0.96
0.00 0.00 0.00 0.00 0.01 0.01 0.02 0.02 0.03 0.04 0.05 0.07 0.08 0.09 0.09 0.10 0.11 0.12 0.12 0.13 0.15 0.16 0.16 0.17 0.19 0.19 0.18 0.18 0.18 0.18 0.19 0.21 0.24 0.28 0.33 0.38 0.42 0.46 0.49 0.52 0.57 0.64 0.74
0.00 0.00 0.00 0.00 0.01 0.02 0.02 0.03 0.03 0.05 0.06 0.07 0.08 0.09 0.11 0.12 0.12 0.12 0.12 0.12 0.12 0.11 0.11 0.11 0.12 0.12 0.12 0.12 0.12 0.12 0.13 0.15 0.17 0.19 0.23 0.27 0.31 0.37 0.42 0.46 0.48 0.49 0.53
0.02 0.01 0.01 0.01 0.01 0.02 0.03 0.04 0.05 0.05 0.05 0.06 0.08 0.09 0.10 0.10 0.11 0.10 0.10 0.09 0.08 0.08 0.08 0.07 0.07 0.07 0.08 0.08 0.09 0.10 0.12 0.13 0.15 0.18 0.24 0.29 0.34 0.39 0.41 0.44 0.45 0.45 0.47
0.04 0.03 0.03 0.04 0.04 0.04 0.04 0.05 0.05 0.05 0.05 0.05 0.07 0.08 0.09 0.10 0.10 0.10 0.10 0.09 0.08 0.07 0.07 0.06 0.06 0.07 0.08 0.09 0.10 0.12 0.14 0.17 0.20 0.23 0.28 0.31 0.33 0.34 0.34 0.35 0.36 0.40 0.42
0.05 0.04 0.04 0.04 0.04 0.04 0.04 0.04 0.05 0.06 0.07 0.08 0.08 0.08 0.09 0.11 0.11 0.12 0.11 0.11 0.09 0.08 0.08 0.09 0.09 0.09 0.10 0.12 0.15 0.18 0.22 0.26 0.30 0.32 0.31 0.30 0.29 0.26 0.25 0.27 0.29 0.31 0.35
0.05 0.04 0.04 0.05 0.04 0.04 0.04 0.04 0.05 0.06 0.07 0.09 0.10 0.10 0.10 0.11 0.12 0.13 0.13 0.13 0.14 0.14 0.14 0.14 0.15 0.17 0.20 0.27 0.26 0.24 0.28 0.32 0.32 0.30 0.26 0.24 0.22 0.19 0.19 0.20 0.22 0.28 0.37
0.04 0.03 0.03 0.04 0.04 0.04 0.05 0.06 0.07 0.08 0.10 0.11 0.12 0.13 0.16 0.17 0.15 0.16 0.19 0.19 0.21 0.24 0.29 0.31 0.31 0.34 0.39 0.41 0.32 0.28 0.24 0.24 0.24 0.22 0.19 0.17 0.15 0.14 0.12 0.11 0.15 0.19 0.27
0.03 0.03 0.02 0.03 0.03 0.03 0.03 0.04 0.06 0.08 0.13 0.17 0.19 0.19 0.21 0.24 0.25 0.25 0.28 0.29 0.32 0.38 0.44 0.47 0.45 0.42 0.41 0.36 0.29 0.23 0.17 0.14 0.12 0.10 0.08 0.07 0.06 0.06 0.10 0.16 0.20 0.15 0.11
0.05 0.04 0.04 0.04 0.03 0.04 0.05 0.05 0.06 0.09 0.15 0.20 0.23 0.23 0.25 0.28 0.32 0.37 0.41 0.40 0.40 0.43 0.44 0.41 0.37 0.33 0.30 0.23 0.15 0.12 0.10 0.09 0.06 0.05 0.04 0.05 0.04 0.06 0.18 0.26 0.26 0.14 0.05
0.08 0.07 0.07 0.07 0.07 0.09 0.11 0.12 0.14 0.16 0.19 0.20 0.24 0.25 0.28 0.32 0.36 0.41 0.46 0.47 0.43 0.38 0.33 0.27 0.22 0.18 0.15 0.12 0.08 0.06 0.05 0.04 0.04 0.04 0.03 0.03 0.05 0.12 0.25 0.26 0.24 0.13 0.05
0.09 0.11 0.13 0.15 0.17 0.19 0.20 0.22 0.23 0.24 0.24 0.25 0.28 0.30 0.31 0.34 0.37 0.38 0.37 0.35 0.31 0.24 0.18 0.14 0.10 0.07 0.05 0.04 0.03 0.04 0.05 0.06 0.08 0.06 0.03 0.02 0.09 0.19 0.23 0.19 0.09 0.10 0.18
0.10 0.12 0.16 0.19 0.22 0.24 0.25 0.26 0.28 0.29 0.28 0.28 0.29 0.30 0.30 0.28 0.24 0.22 0.22 0.18 0.14 0.10 0.07 0.05 0.03 0.02 0.01 0.01 0.01 0.03 0.07 0.11 0.12 0.08 0.05 0.06 0.15 0.16 0.11 0.06 0.06 0.13 0.13
0.10 0.12 0.13 0.14 0.15 0.19 0.24 0.27 0.28 0.27 0.25 0.23 0.23 0.22 0.19 0.16 0.12 0.09 0.07 0.06 0.05 0.04 0.03 0.02 0.01 0.01 0.01 0.00 0.01 0.03 0.09 0.13 0.12 0.09 0.12 0.14 0.11 0.06 0.02 0.03 0.05 0.06 0.05
0.08 0.08 0.09 0.10 0.10 0.11 0.14 0.16 0.17 0.16 0.14 0.13 0.12 0.10 0.08 0.07 0.05 0.03 0.02 0.02 0.01 0.01 0.01 0.01 0.01 0.01 0.01 0.00 0.01 0.05 0.08 0.09 0.10 0.12 0.12 0.07 0.03 0.02 0.02 0.02 0.02 0.03 0.07
0.08 0.06 0.05 0.05 0.05 0.06 0.07 0.07 0.06 0.06 0.06 0.05 0.04 0.03 0.03 0.02 0.02 0.02 0.02 0.01 0.01 0.01 0.01 0.01 0.02 0.03 0.03 0.03 0.10 0.14 0.12 0.14 0.15 0.14 0.05 0.01 0.01 0.02 0.02 0.01 0.01 0.03 0.06
0.09 0.05 0.04 0.04 0.04 0.04 0.04 0.04 0.03 0.03 0.02 0.02 0.02 0.02 0.02 0.02 0.02 0.02 0.02 0.02 0.02 0.02 0.01 0.01 0.02 0.03 0.04 0.08 0.10 0.12 0.16 0.17 0.13 0.08 0.02 0.02 0.03 0.04 0.04 0.05 0.05 0.04 0.08